Weather History for LTBU - August, 2014

Change the Weather History Date:

Saturday, August 2, 2014

  Actual Average (LTBA) Record (LTBA)
Temperature  
Mean Temperature 77 °F -  
Max Temperature 86 °F 84 °F 91 °F (1998)
Min Temperature 68 °F 71 °F 66 °F (2000)
Cooling Degree Days 12    
Growing Degree Days 27 (Base 50)    
Moisture  
Dew Point 69 °F    
Average Humidity 81    
Maximum Humidity 100    
Minimum Humidity 51    
Precipitation  
Precipitation 0.00 in - - ()
Sea Level Pressure  
Sea Level Pressure 29.73 in    
Wind  
Wind Speed 9 mph ()    
Max Wind Speed 17 mph    
Max Gust Speed -    
Visibility 6.2 miles    
Events Rain , Thunderstorm    
Averages and records for this station are not official NWS values.
T = Trace of Precipitation, MM = Missing Value Source: Averaged Metar Reports

Daily Weather History Graph

Daily Weather History Graph

Search for Another Location

Airport or City:

Trip Planner

Search our weather history database for the weather conditions in past years. The results will help you decide how hot, cold, wet, or windy it might be!

Date:

Astronomy

Aug. 02, 2014 Rise Set
Actual Time 6:04 AM EEST 8:23 PM EEST
Civil Twilight 5:33 AM EEST 8:54 PM EEST
Nautical Twilight 4:55 AM EEST 9:32 PM EEST
Astronomical Twilight 4:13 AM EEST 10:14 PM EEST
Moon 12:11 PM EEST (8/2) 11:27 PM EEST (8/2)
Length of Visible Light 15h 21m
Length of Day
14h 19m
Waxing Crescent, 34% of the Moon is Illuminated
Aug 2
Waxing Crescent
Aug 4
First Quarter
Aug 10
Full
Aug 17
Last Quarter
Aug 25
New

Hourly Weather History & Observations

Time (EEST) Temp. Heat Index Dew Point Humidity Pressure Visibility Wind Dir Wind Speed Gust Speed Precip Events Conditions
12:20 AM 73.4 °F - 69.8 °F 88% 29.68 in 6.2 mi NE 13.8 mph - N/A   Scattered Clouds
12:50 AM 73.4 °F - 69.8 °F 88% 29.68 in 6.2 mi NNE 12.7 mph - N/A   Scattered Clouds
1:20 AM 73.4 °F - 71.6 °F 94% 29.68 in 6.2 mi NNE 10.4 mph - N/A   Scattered Clouds
1:50 AM 71.6 °F - 71.6 °F 100% 29.68 in - NE 8.1 mph - N/A   Clear
2:20 AM 71.6 °F - 69.8 °F 94% 29.68 in - NE 8.1 mph - N/A   Clear
2:50 AM 73.4 °F - 71.6 °F 94% 29.68 in - NE 10.4 mph - N/A   Clear
3:20 AM 71.6 °F - 69.8 °F 94% 29.68 in - NNE 10.4 mph - N/A   Clear
3:50 AM 71.6 °F - 69.8 °F 94% 29.68 in - NNE 8.1 mph - N/A   Clear
4:20 AM 71.6 °F - 69.8 °F 94% 29.68 in 6.2 mi North 5.8 mph - N/A   Scattered Clouds
4:50 AM 71.6 °F - 69.8 °F 94% 29.68 in 6.2 mi North 5.8 mph - N/A   Partly Cloudy
5:20 AM 71.6 °F - 69.8 °F 94% 29.68 in 6.2 mi North 5.8 mph - N/A   Scattered Clouds
5:50 AM 69.8 °F - 69.8 °F 100% 29.71 in 6.2 mi North 4.6 mph - N/A   Scattered Clouds
6:20 AM 71.6 °F - 69.8 °F 94% 29.71 in 6.2 mi NNW 6.9 mph - N/A   Scattered Clouds
6:50 AM 71.6 °F - 69.8 °F 94% 29.71 in 6.2 mi North 5.8 mph - N/A   Scattered Clouds
7:20 AM 73.4 °F - 71.6 °F 94% 29.71 in 6.2 mi North 5.8 mph - N/A   Scattered Clouds
7:50 AM 75.2 °F - 71.6 °F 89% 29.71 in 6.2 mi NNE 9.2 mph - N/A   Scattered Clouds
8:20 AM 75.2 °F - 71.6 °F 89% 29.71 in 6.2 mi North 5.8 mph - N/A   Mostly Cloudy
8:29 AM 75.2 °F - 71.6 °F 89% 29.71 in 6.2 mi North 8.1 mph - N/A Thunderstorm Thunderstorm
8:50 AM 75.2 °F - 71.6 °F 89% 29.74 in 6.2 mi NW 8.1 mph - N/A Thunderstorm Thunderstorm
9:20 AM 73.4 °F - 71.6 °F 94% 29.74 in 6.2 mi NW 9.2 mph - N/A Thunderstorm Thunderstorm
9:50 AM 73.4 °F - 71.6 °F 94% 29.74 in 6.2 mi NNW 9.2 mph - N/A Thunderstorm Thunderstorm
10:20 AM 75.2 °F - 71.6 °F 89% 29.74 in 6.2 mi NW 6.9 mph - N/A Thunderstorm Thunderstorm
10:50 AM 75.2 °F - 71.6 °F 89% 29.71 in 6.2 mi North 9.2 mph - N/A Thunderstorm Thunderstorm
11:20 AM 77.0 °F - 71.6 °F 83% 29.71 in 6.2 mi North 9.2 mph - N/A Thunderstorm Thunderstorm
11:50 AM 77.0 °F - 71.6 °F 83% 29.74 in 6.2 mi NNW 8.1 mph - N/A   Mostly Cloudy
12:20 PM 78.8 °F - 71.6 °F 78% 29.71 in 6.2 mi NW 11.5 mph - N/A   Mostly Cloudy
12:50 PM 82.4 °F 88.2 °F 73.4 °F 74% 29.71 in 6.2 mi NW 11.5 mph - N/A   Mostly Cloudy
1:20 PM 82.4 °F 85.4 °F 68.0 °F 62% 29.74 in 6.2 mi North 12.7 mph - N/A   Mostly Cloudy
1:50 PM 84.2 °F 88.4 °F 69.8 °F 62% 29.71 in 6.2 mi NNE 13.8 mph - N/A   Mostly Cloudy
2:20 PM 84.2 °F 87.3 °F 68.0 °F 58% 29.71 in 6.2 mi NE 15.0 mph - N/A   Mostly Cloudy
2:50 PM 86.0 °F 88.2 °F 66.2 °F 51% 29.71 in 6.2 mi NNE 16.1 mph - N/A   Mostly Cloudy
3:20 PM 84.2 °F 87.3 °F 68.0 °F 58% 29.71 in 6.2 mi NNE 17.3 mph - N/A   Mostly Cloudy
3:50 PM 84.2 °F 87.3 °F 68.0 °F 58% 29.71 in 6.2 mi NNE 17.3 mph - N/A   Mostly Cloudy
4:20 PM 84.2 °F 87.3 °F 68.0 °F 58% 29.71 in 6.2 mi NNE 17.3 mph - N/A   Mostly Cloudy
4:50 PM 80.6 °F 83.2 °F 68.0 °F 65% 29.71 in 6.2 mi NE 15.0 mph - N/A   Mostly Cloudy
5:20 PM 80.6 °F 83.2 °F 68.0 °F 65% 29.74 in 6.2 mi NNE 17.3 mph - N/A Thunderstorm Thunderstorm
5:50 PM 73.4 °F - 64.4 °F 73% 29.77 in 6.2 mi West 15.0 mph - N/A Thunderstorm Thunderstorm
6:20 PM 71.6 °F - 62.6 °F 73% 29.77 in 6.2 mi West 16.1 mph - N/A Thunderstorm Thunderstorm
6:50 PM 75.2 °F - 62.6 °F 65% 29.77 in 6.2 mi NW 9.2 mph - N/A Thunderstorm Thunderstorm
6:56 PM 75.2 °F - 64.4 °F 69% 29.77 in 5.0 mi NNW 10.4 mph - N/A Rain , Thunderstorm Light Thunderstorms and Rain
7:20 PM 73.4 °F - 64.4 °F 73% 29.77 in 6.2 mi North 9.2 mph - N/A Thunderstorm Thunderstorm
7:50 PM 75.2 °F - 66.2 °F 73% 29.77 in 6.2 mi NE 10.4 mph - N/A   Mostly Cloudy
8:20 PM 75.2 °F - 68.0 °F 78% 29.77 in 6.2 mi NNE 9.2 mph - N/A   Mostly Cloudy
8:50 PM 75.2 °F - 68.0 °F 78% 29.77 in 6.2 mi North 9.2 mph - N/A   Mostly Cloudy
9:20 PM 75.2 °F - 66.2 °F 73% 29.77 in 6.2 mi North 10.4 mph - N/A   Mostly Cloudy
9:50 PM 73.4 °F - 66.2 °F 78% 29.77 in 6.2 mi North 8.1 mph - N/A   Mostly Cloudy
10:20 PM 73.4 °F - 68.0 °F 83% 29.80 in 6.2 mi NW 4.6 mph - N/A   Scattered Clouds
10:50 PM 69.8 °F - 66.2 °F 88% 29.80 in 6.2 mi WNW 9.2 mph - N/A   Scattered Clouds
11:20 PM 68.0 °F - 64.4 °F 88% 29.80 in 6.2 mi WNW 9.2 mph - N/A   Partly Cloudy
11:50 PM 68.0 °F - 64.4 °F 88% 29.80 in 6.2 mi NW 10.4 mph - N/A   Scattered Clouds